Year,Month,Day,Hour,Minute,Value (Times are PST for windgust in km/hr)
2015,12,15,05,43,1.60
2015,12,15,05,45,3.20
2015,12,15,05,46,3.20
2015,12,15,06,09,3.20
2015,12,15,06,10,3.20
2015,12,15,06,13,1.60
2015,12,15,06,14,1.60
2015,12,15,06,21,1.60
2015,12,15,06,22,1.60
2015,12,15,09,16,1.60
2015,12,15,09,17,1.60
2015,12,15,09,51,3.20
2015,12,15,09,52,3.20
2015,12,15,09,53,3.20
2015,12,15,09,54,1.60
2015,12,15,09,56,1.60
2015,12,15,09,58,1.60
2015,12,15,10,00,1.60
2015,12,15,10,02,1.60
2015,12,15,10,06,1.60
2015,12,15,10,07,3.20
2015,12,15,10,14,1.60
2015,12,15,10,15,1.60
2015,12,15,10,16,1.60
2015,12,15,10,46,1.60
2015,12,15,10,49,1.60
2015,12,15,10,51,1.60
2015,12,15,10,56,3.20
2015,12,15,10,57,3.20
2015,12,15,10,58,1.60
2015,12,15,11,00,3.20
2015,12,15,11,01,1.60
2015,12,15,11,04,3.20
2015,12,15,11,05,1.60
2015,12,15,11,06,6.40
2015,12,15,11,07,4.80
2015,12,15,11,08,8.10
2015,12,15,11,09,8.10
2015,12,15,11,10,6.40
2015,12,15,11,11,3.20
2015,12,15,11,12,4.80
2015,12,15,11,13,4.80
2015,12,15,11,14,4.80
2015,12,15,11,15,4.80
2015,12,15,11,16,6.40
2015,12,15,11,17,4.80
2015,12,15,11,18,3.20
2015,12,15,11,19,4.80
2015,12,15,11,20,6.40
2015,12,15,11,21,4.80
2015,12,15,11,22,8.10
2015,12,15,11,23,6.40
2015,12,15,11,24,4.80
2015,12,15,11,25,6.40
2015,12,15,11,26,6.40
2015,12,15,11,27,4.80
2015,12,15,11,28,1.60
2015,12,15,11,29,6.40
2015,12,15,11,30,3.20
2015,12,15,11,31,6.40
2015,12,15,11,32,8.10
2015,12,15,11,33,8.10
2015,12,15,11,34,6.40
2015,12,15,11,35,9.60
2015,12,15,11,36,8.10
2015,12,15,11,37,8.10
2015,12,15,11,38,12.90
2015,12,15,11,39,11.30
2015,12,15,11,40,9.60
2015,12,15,11,41,9.60
2015,12,15,11,42,8.10
2015,12,15,11,43,11.30
2015,12,15,11,44,11.30
2015,12,15,11,45,11.30
2015,12,15,11,46,6.40
2015,12,15,11,47,12.90
2015,12,15,11,48,9.60
2015,12,15,11,49,9.60
2015,12,15,11,50,9.60
2015,12,15,11,51,8.10
2015,12,15,11,52,9.60
2015,12,15,11,53,9.60
2015,12,15,11,54,8.10
2015,12,15,11,55,8.10
2015,12,15,11,56,9.60
2015,12,15,11,57,4.80
2015,12,15,11,58,6.40
2015,12,15,11,59,6.40
2015,12,15,12,00,8.10
2015,12,15,12,01,8.10
2015,12,15,12,02,6.40
2015,12,15,12,03,3.20
2015,12,15,12,04,1.60
2015,12,15,12,05,4.80
2015,12,15,12,06,4.80
2015,12,15,12,07,6.40
2015,12,15,12,08,8.10
2015,12,15,12,09,8.10
2015,12,15,12,10,8.10
2015,12,15,12,11,3.20
2015,12,15,12,12,3.20
2015,12,15,12,13,6.40
2015,12,15,12,14,4.80
2015,12,15,12,34,1.60
2015,12,15,12,37,1.60
2015,12,15,12,47,1.60
2015,12,15,12,49,1.60
2015,12,15,12,50,1.60
2015,12,15,12,57,3.20
2015,12,15,12,58,6.40
2015,12,15,12,59,8.10
2015,12,15,13,00,6.40
2015,12,15,13,01,6.40
2015,12,15,13,02,3.20
2015,12,15,13,05,1.60
2015,12,15,13,07,6.40
2015,12,15,13,08,11.30
2015,12,15,13,09,8.10
2015,12,15,13,10,4.80
2015,12,15,13,11,3.20
2015,12,15,13,13,3.20
2015,12,15,13,14,3.20
2015,12,15,13,15,3.20
2015,12,15,13,16,4.80
2015,12,15,13,17,11.30
2015,12,15,13,18,11.30
2015,12,15,13,19,8.10
2015,12,15,13,20,6.40
2015,12,15,13,21,4.80
2015,12,15,13,22,4.80
2015,12,15,13,24,1.60
2015,12,15,13,25,1.60
2015,12,15,13,26,4.80
2015,12,15,13,27,8.10
2015,12,15,13,28,1.60
2015,12,15,13,31,3.20
2015,12,15,13,32,4.80
2015,12,15,13,33,3.20
2015,12,15,13,34,4.80
2015,12,15,13,35,4.80
2015,12,15,13,36,3.20
2015,12,15,13,37,1.60
2015,12,15,13,39,3.20
2015,12,15,13,41,1.60
2015,12,15,13,42,11.30
2015,12,15,13,43,6.40
2015,12,15,13,44,1.60
2015,12,15,13,45,1.60
2015,12,15,13,48,4.80
2015,12,15,13,49,1.60
2015,12,15,13,51,3.20
2015,12,15,13,52,6.40
2015,12,15,13,53,6.40
2015,12,15,13,54,1.60
2015,12,15,13,55,1.60
2015,12,15,13,56,1.60
2015,12,15,13,58,6.40
2015,12,15,13,59,6.40
2015,12,15,14,00,1.60
2015,12,15,14,04,3.20
2015,12,15,14,05,3.20
2015,12,15,14,06,4.80
2015,12,15,14,08,4.80
2015,12,15,14,09,3.20
2015,12,15,14,10,4.80
2015,12,15,14,11,3.20
2015,12,15,14,12,4.80
2015,12,15,14,13,3.20
2015,12,15,14,14,4.80
2015,12,15,14,15,4.80
2015,12,15,14,16,3.20
2015,12,15,14,17,3.20
2015,12,15,14,18,1.60
2015,12,15,14,19,3.20
2015,12,15,14,22,3.20
2015,12,15,14,24,1.60
2015,12,15,14,26,1.60
2015,12,15,14,27,4.80
2015,12,15,14,30,1.60
2015,12,15,14,31,6.40
2015,12,15,14,32,4.80
2015,12,15,14,33,4.80
2015,12,15,14,34,4.80
2015,12,15,14,35,4.80
2015,12,15,14,36,4.80
2015,12,15,14,37,9.60
2015,12,15,14,38,11.30
2015,12,15,14,39,11.30
2015,12,15,14,40,14.50
2015,12,15,14,41,14.50
2015,12,15,14,42,14.50
2015,12,15,14,43,11.30
2015,12,15,14,44,14.50
2015,12,15,14,45,12.90
2015,12,15,14,46,14.50
2015,12,15,14,47,12.90
2015,12,15,14,48,11.30
2015,12,15,14,49,11.30
2015,12,15,14,50,9.60
2015,12,15,14,51,14.50
2015,12,15,14,52,16.10
2015,12,15,14,53,14.50
2015,12,15,14,54,14.50
2015,12,15,14,55,14.50
2015,12,15,14,56,11.30
2015,12,15,14,57,9.60
2015,12,15,14,58,9.60
2015,12,15,14,59,9.60
2015,12,15,15,00,6.40
2015,12,15,15,01,3.20
2015,12,15,15,02,6.40
2015,12,15,15,03,8.10
2015,12,15,15,04,8.10
2015,12,15,15,05,6.40
2015,12,15,15,06,3.20
2015,12,15,15,07,3.20
2015,12,15,15,08,8.10
2015,12,15,15,09,6.40
2015,12,15,15,12,1.60
2015,12,15,15,14,1.60
2015,12,15,15,15,4.80
2015,12,15,15,16,8.10
2015,12,15,15,17,6.40
2015,12,15,15,18,6.40
2015,12,15,15,19,8.10
2015,12,15,15,20,8.10
2015,12,15,15,21,9.60
2015,12,15,15,22,9.60
2015,12,15,15,23,8.10
2015,12,15,15,24,8.10
2015,12,15,15,25,8.10
2015,12,15,15,26,4.80
2015,12,15,15,27,4.80
2015,12,15,15,28,3.20
2015,12,15,15,29,3.20
2015,12,15,15,31,3.20
2015,12,15,15,32,3.20
2015,12,15,15,33,3.20
2015,12,15,15,34,3.20
2015,12,15,15,35,4.80
2015,12,15,15,36,4.80
2015,12,15,15,37,6.40
2015,12,15,15,38,6.40
2015,12,15,15,39,6.40
2015,12,15,15,40,6.40
2015,12,15,15,41,4.80
2015,12,15,15,42,1.60
2015,12,15,15,43,4.80
2015,12,15,15,44,3.20
2015,12,15,15,45,3.20
2015,12,15,15,46,1.60
2015,12,15,15,48,1.60
2015,12,15,15,49,3.20
2015,12,15,15,50,3.20
2015,12,15,15,51,1.60
2015,12,15,15,53,4.80
2015,12,15,15,54,8.10
2015,12,15,15,55,6.40
2015,12,15,15,56,1.60
2015,12,15,15,57,1.60
2015,12,15,16,03,1.60
2015,12,15,16,04,1.60
2015,12,15,16,09,1.60
2015,12,15,16,11,3.20
2015,12,15,16,12,3.20
2015,12,15,16,13,3.20
2015,12,15,16,16,4.80
2015,12,15,16,18,6.40
2015,12,15,16,19,8.10
2015,12,15,16,20,3.20
2015,12,15,16,21,1.60
2015,12,15,16,23,4.80
2015,12,15,16,24,3.20
2015,12,15,16,28,1.60
2015,12,15,16,32,1.60
2015,12,15,16,35,1.60
2015,12,15,16,36,1.60
2015,12,15,16,37,3.20
2015,12,15,16,38,1.60
2015,12,15,16,42,1.60
2015,12,15,16,44,3.20
2015,12,15,16,45,6.40
2015,12,15,16,46,1.60
2015,12,15,16,47,8.10
2015,12,15,16,48,6.40
2015,12,15,16,49,6.40
2015,12,15,16,50,3.20
2015,12,15,16,51,4.80
2015,12,15,16,52,3.20
2015,12,15,16,53,4.80
2015,12,15,16,57,3.20
2015,12,15,16,58,4.80
2015,12,15,16,59,4.80
2015,12,15,17,00,8.10
2015,12,15,17,01,1.60
2015,12,15,17,02,1.60
2015,12,15,17,05,4.80
2015,12,15,17,06,3.20
2015,12,15,17,16,4.80
2015,12,15,17,17,4.80
2015,12,15,17,18,1.60
2015,12,15,17,29,3.20
2015,12,15,17,30,1.60
2015,12,15,17,31,1.60
2015,12,15,17,32,3.20
2015,12,15,17,33,8.10
2015,12,15,17,34,9.60
2015,12,15,17,35,8.10
2015,12,15,17,36,8.10
2015,12,15,17,37,16.10
2015,12,15,17,38,14.50
2015,12,15,17,39,8.10
2015,12,15,17,40,4.80
2015,12,15,17,41,9.60
2015,12,15,17,42,8.10
2015,12,15,17,43,8.10
2015,12,15,17,44,6.40
2015,12,15,17,45,11.30
2015,12,15,17,46,16.10
2015,12,15,17,47,20.90
2015,12,15,17,48,8.10
2015,12,15,17,49,6.40
2015,12,15,17,50,16.10
2015,12,15,17,51,9.60
2015,12,15,17,52,6.40
2015,12,15,17,53,1.60
2015,12,15,17,54,4.80
2015,12,15,17,55,4.80
2015,12,15,17,56,9.60
2015,12,15,17,57,4.80
2015,12,15,17,58,3.20
2015,12,15,18,01,4.80
2015,12,15,18,02,6.40
2015,12,15,18,03,8.10
2015,12,15,18,05,1.60
2015,12,15,18,13,3.20
2015,12,15,18,14,1.60
2015,12,15,18,17,1.60
2015,12,15,18,18,4.80
2015,12,15,18,19,1.60
2015,12,15,18,20,3.20
2015,12,15,18,22,1.60
2015,12,15,18,23,8.10
2015,12,15,18,24,9.60
2015,12,15,18,25,4.80
2015,12,15,18,26,1.60
2015,12,15,18,28,4.80
2015,12,15,18,29,3.20
2015,12,15,18,32,4.80
2015,12,15,18,33,6.40
2015,12,15,18,34,4.80
2015,12,15,18,35,4.80
2015,12,15,18,36,6.40
2015,12,15,18,37,4.80
2015,12,15,18,39,1.60
2015,12,15,18,40,4.80
2015,12,15,18,41,1.60
2015,12,15,18,42,4.80
2015,12,15,18,43,6.40
2015,12,15,18,44,4.80
2015,12,15,18,46,1.60
2015,12,15,18,48,1.60
2015,12,15,18,49,1.60
2015,12,15,18,51,4.80
2015,12,15,18,52,3.20
2015,12,15,18,54,4.80
2015,12,15,18,55,6.40
2015,12,15,18,56,6.40
2015,12,15,18,57,3.20
2015,12,15,18,58,3.20
2015,12,15,18,59,1.60
2015,12,15,19,00,4.80
2015,12,15,19,01,1.60
2015,12,15,19,03,4.80
2015,12,15,19,07,1.60
2015,12,15,19,13,1.60
2015,12,15,19,14,4.80
2015,12,15,19,16,1.60
2015,12,15,19,17,6.40
2015,12,15,19,18,3.20
2015,12,15,19,20,4.80
2015,12,15,19,21,1.60
2015,12,15,19,22,1.60
2015,12,15,19,23,3.20
2015,12,15,19,24,3.20
2015,12,15,19,25,3.20
2015,12,15,19,27,6.40
2015,12,15,19,28,3.20
2015,12,15,19,30,8.10
2015,12,15,19,31,9.60
2015,12,15,19,32,1.60
2015,12,15,19,33,6.40
2015,12,15,19,34,3.20
2015,12,15,19,35,6.40
2015,12,15,19,36,4.80
2015,12,15,19,37,6.40
2015,12,15,19,38,6.40
2015,12,15,19,39,4.80
2015,12,15,19,40,3.20
2015,12,15,19,41,4.80
2015,12,15,19,42,1.60
2015,12,15,19,43,3.20
2015,12,15,19,44,3.20
2015,12,15,19,45,4.80
2015,12,15,19,46,3.20
2015,12,15,19,47,4.80
2015,12,15,19,48,3.20
2015,12,15,19,49,1.60
2015,12,15,19,50,1.60
2015,12,15,19,51,1.60
2015,12,15,19,52,1.60
2015,12,15,19,53,1.60
2015,12,15,19,54,1.60
2015,12,15,19,55,1.60
2015,12,15,19,56,1.60
2015,12,15,19,57,1.60
2015,12,15,19,58,1.60
2015,12,15,22,32,1.60
2015,12,15,22,39,1.60
2015,12,15,22,46,1.60
2015,12,15,22,59,1.60
2015,12,15,23,00,4.80
2015,12,15,23,11,1.60
2015,12,15,23,13,1.60
2015,12,15,23,23,1.60
2015,12,15,23,28,1.60
2015,12,15,23,29,3.20
2015,12,15,23,35,3.20
2015,12,15,23,36,1.60
2015,12,15,23,48,1.60
2015,12,15,23,58,3.20
2015,12,15,23,59,6.40
